Regional Weather Roundup
Issued by NWS

Home | Current Version | Previous Version | Graphics & Text | Print | Product List | Glossary On
Versions: 1 2 3 4 5 6 7 8 9 10 11 12 13 14 15 16 17 18 19 20 21 22 23 24 25 26 27 28 29 30 31 32 33 34 35 36 37 38 39 40 41 42 43 44 45 46 47 48 49 50
000
ASUS43 KFSD 061002
RWRSD

WEATHER ROUNDUP FOR SOUTH DAKOTA
NATIONAL WEATHER SERVICE SIOUX FALLS SD
400 AM CST SAT FEB 06 2016

NOTE: "FAIR" INDICATES FEW OR NO CLOUDS BELOW 12,000 FEET WITH NO
SIGNIFICANT WEATHER AND/OR OBSTRUCTIONS TO VISIBILITY.


SDZ001>005-009-010-012>017-061100-
NORTHWEST AND NORTH CENTRAL SOUTH DAKOTA

CITY           SKY/WX    TMP DP  RH WIND       PRES   REMARKS
BUFFALO          N/A     31  19  61 W14       29.92F WCI  21
FAITH            N/A     31  18  58 SW14      30.00F WCI  21
MOBRIDGE       CLEAR     27  22  81 SE9       29.97F WCI  18
$$

SDZ012>016-024>037-041>051-057-063-072>074-061100-
SOUTHWEST AND SOUTH CENTRAL SOUTH DAKOTA

CITY           SKY/WX    TMP DP  RH WIND       PRES   REMARKS
RAPID CTY ARPT CLOUDY    24  16  71 CALM      30.07F
PIERRE         CLEAR     28  22  78 SW13      30.05F WCI  17
CUSTER         CLOUDY    25   9  50 W5        30.06F WCI  19
ELLSWORTH AFB  CLOUDY    30  17  60 SW7       30.04F WCI  23
PHILIP         CLEAR     27  20  75 W10       30.08F WCI  17
PINE RIDGE     CLOUDY    27  15  61 W8        30.14F WCI  19
WINNER         FAIR      28  18  66 SW14      30.10F WCI  17
$$

SDZ004>011-016>023-039-040-061100-
NORTHEAST SOUTH DAKOTA

CITY           SKY/WX    TMP DP  RH WIND       PRES   REMARKS
ABERDEEN       CLEAR     23  19  85 S10       30.03F WCI  12
WATERTOWN      CLOUDY    16  12  84 SE7       30.06F WCI   6
BROOKINGS      CLOUDY    17  16  95 S7        30.10F WCI   8
SISSETON         N/A     29  22  75 SW14      30.01F WCI  18
$$

SDZ017-020-022-023-036>040-048>070-061100-
SOUTHEAST SOUTH DAKOTA

CITY           SKY/WX    TMP DP  RH WIND       PRES   REMARKS
SIOUX FALLS    MOCLDY    21  19  92 SW5       30.15F WCI  15
HURON          CLEAR     23  20  88 S9        30.08F WCI  13
MITCHELL       CLEAR     26  22  84 S10       30.14F WCI  16
YANKTON        CLEAR     23  21  93 SW7       30.19F WCI  15
$$

ABBREVIATIONS USED IN REMARKS
   TC - TEMPERATURE IN CELSIUS
  WCI - WIND CHILL INDEX
   HX - HEAT INDEX
  VSB - VISIBILITY





USA.gov is the U.S. government's official web portal to all federal, state and local government web resources and services.